Date,TemperatureHighF,TemperatureAvgF,TemperatureLowF,DewpointHighF,DewpointAvgF,DewpointLowF,HumidityHigh,HumidityAvg,HumidityLow,PressureMaxIn,PressureMinIn,WindSpeedMaxMPH,WindSpeedAvgMPH,GustSpeedMaxMPH,PrecipitationSumIn
2013-1-1,41,36,33,36,31,26,88,82,72,30.03,29.88,10,1,11,0.06
2013-1-2,38,33,28,30,23,16,85,68,44,30.11,29.94,9,2,11,0.01
2013-1-3,47,30,23,24,18,12,76,63,27,30.18,30.08,7,1,10,0.00
2013-1-4,39,30,25,20,17,14,76,58,44,30.26,30.17,19,4,19,0.00
2013-1-5,50,33,22,26,21,16,78,61,27,30.34,30.13,6,2,7,0.00
2013-1-6,43,38,34,30,26,23,72,63,50,30.15,30.00,17,2,17,0.00
2013-1-7,51,36,26,25,20,17,72,54,28,30.38,30.15,12,3,15,0.00
2013-1-8,59,33,21,29,22,16,82,66,26,30.33,30.22,5,1,7,0.00
2013-1-9,45,37,28,40,31,21,96,78,58,30.40,30.26,6,1,6,0.00
2013-1-10,53,41,34,41,36,32,98,84,57,30.49,30.28,4,1,6,0.00
2013-1-11,55,45,36,47,41,32,93,84,72,30.27,30.01,12,2,12,0.06
2013-1-12,74,51,41,57,46,39,95,85,53,30.12,29.98,6,1,6,0.02
2013-1-13,65,53,45,54,49,44,97,88,67,30.04,29.91,5,1,7,0.04
2013-1-14,55,47,38,53,42,34,95,83,74,30.23,29.97,24,5,24,0.39
2013-1-15,43,41,38,42,38,36,93,90,84,30.16,29.94,6,2,12,0.63
2013-1-16,43,42,41,42,40,40,94,93,93,29.96,29.87,3,1,3,0.15
2013-1-17,49,40,25,25,22,17,74,50,28,29.87,29.68,3,1,3,0.00
2013-1-18,37,30,26,26,22,20,78,71,61,29.92,29.62,3,1,3,3.34
2013-1-19,56,35,24,32,23,18,82,65,28,29.86,29.54,8,2,8,0.00
2013-1-20,57,38,27,31,22,10,87,58,22,29.58,29.48,15,4,21,0.01
2013-1-21,48,33,23,23,10,-4,75,43,20,29.57,29.35,14,4,27,0.00
2013-1-22,30,20,14,-2,-10,-15,39,26,20,29.68,29.49,18,6,21,0.11
2013-1-23,29,22,14,9,-3,-14,49,34,19,29.73,29.44,14,4,21,0.00
2013-1-24,32,22,14,15,2,-7,57,42,25,29.92,29.42,16,6,28,0.01
2013-1-25,27,20,14,20,8,-2,76,60,41,29.88,29.49,5,2,8,0.00
2013-1-26,34,30,27,25,19,13,82,62,55,29.87,29.54,14,4,18,0.00
2013-1-27,46,31,17,24,17,9,74,57,30,29.95,29.82,8,1,11,0.12
2013-1-28,60,42,32,46,36,24,89,78,51,29.82,29.60,10,1,10,0.17
2013-1-29,77,54,42,52,45,40,94,76,42,29.63,29.44,8,1,14,0.01
2013-1-30,71,54,43,56,50,42,97,88,56,29.42,28.90,18,3,21,1.03
2013-1-31,48,34,30,43,21,14,85,58,46,29.39,28.90,24,7,31,0.20
2013-2-1,33,22,14,27,5,-7,88,51,22,29.80,29.27,21,6,21,0.01
2013-2-2,32,21,11,24,13,2,82,70,41,29.78,29.46,8,2,9,0.00
2013-2-3,37,30,27,26,20,12,88,67,52,29.53,29.32,14,3,19,0.00
2013-2-4,42,31,23,32,17,9,75,55,40,29.57,29.35,10,3,13,0.08
2013-2-5,50,39,35,35,31,28,83,73,48,29.39,29.32,8,2,13,0.00
2013-2-6,60,42,31,33,27,19,84,61,24,29.71,29.39,10,2,14,0.00
2013-2-7,49,38,30,34,30,26,87,73,52,29.74,29.50,8,2,12,0.00
2013-2-8,47,38,33,37,29,21,86,71,55,29.64,29.34,16,4,26,0.05
2013-2-9,55,35,26,22,15,8,66,46,19,29.80,29.64,12,4,23,0.00
2013-2-10,59,39,23,36,20,14,82,53,19,29.83,29.56,16,2,16,0.06
2013-2-11,63,50,41,48,34,13,93,61,21,29.55,29.33,21,5,21,0.04
2013-2-12,61,45,33,28,22,15,71,43,18,29.58,29.37,18,4,21,0.00
2013-2-13,42,39,36,40,31,25,93,74,59,29.40,29.06,12,2,22,0.19
2013-2-14,54,39,29,29,25,20,80,59,26,29.48,29.33,11,3,14,0.00
2013-2-15,58,38,28,36,29,24,92,75,32,29.52,29.37,14,2,17,0.05
2013-2-16,35,30,24,26,18,11,78,61,42,29.49,29.37,16,2,17,0.00
2013-2-17,30,22,16,14,2,-5,76,44,23,29.69,29.41,17,6,21,0.01
2013-2-18,58,31,14,30,15,5,73,54,23,29.79,29.50,7,2,9,0.00
2013-2-19,53,41,34,40,26,10,88,58,26,29.51,29.24,19,4,26,0.09
2013-2-20,39,31,25,12,8,4,47,38,24,29.62,29.43,18,6,22,0.00
2013-2-21,51,32,19,19,11,5,60,44,22,29.73,29.59,9,3,9,0.00
2013-2-22,49,39,34,35,30,17,85,72,45,29.67,29.51,8,2,12,0.13
2013-2-23,63,45,37,41,36,32,87,72,44,29.52,29.28,6,2,6,0.00
2013-2-24,54,42,33,37,24,14,88,54,23,29.55,29.32,15,4,22,0.00
2013-2-25,56,36,25,25,21,17,76,56,27,29.63,29.48,9,2,13,0.00
2013-2-26,42,38,33,40,29,16,95,72,43,29.54,29.03,8,2,11,0.41
2013-2-27,45,41,37,39,33,29,98,75,55,29.21,29.06,11,4,21,0.04
2013-2-28,38,34,33,30,24,20,83,67,55,29.31,29.16,14,3,18,0.01
2013-3-1,39,35,33,27,24,21,73,65,54,29.39,29.28,10,4,14,0.01
2013-3-2,33,30,27,22,17,13,67,59,49,29.43,29.35,13,4,16,0.00
2013-3-3,32,27,25,16,14,10,63,57,50,29.49,29.40,11,4,14,0.01
2013-3-4,50,33,24,20,11,5,64,43,20,29.60,29.47,12,4,14,0.00
2013-3-5,42,36,31,37,30,19,93,80,61,29.52,29.07,4,2,8,0.41
2013-3-6,36,34,31,31,24,21,89,67,60,29.57,29.10,17,4,20,0.05
2013-3-7,40,35,33,27,25,23,73,67,56,29.73,29.56,11,4,16,0.00
2013-3-8,52,38,29,24,22,18,76,54,30,29.82,29.68,15,4,20,0.00
2013-3-9,67,42,24,34,26,20,83,60,19,29.83,29.65,8,2,11,0.00
2013-3-10,72,50,33,34,30,25,85,53,17,29.72,29.55,11,3,18,0.00
2013-3-11,59,55,50,50,41,32,99,61,38,29.58,29.28,13,4,21,0.12
2013-3-12,54,44,32,51,36,28,99,75,42,29.49,29.25,14,4,21,0.15
2013-3-13,41,33,28,33,26,16,90,76,53,29.65,29.44,21,5,21,0.11
2013-3-14,50,34,26,20,13,6,73,46,21,29.75,29.61,17,6,21,0.01
2013-3-15,65,43,25,36,26,18,80,57,26,29.65,29.33,10,2,17,0.00
2013-3-16,77,54,38,56,43,34,99,72,32,29.36,29.10,18,4,27,0.26
2013-3-17,55,47,41,47,42,39,97,83,70,29.56,29.37,9,2,12,0.22
2013-3-18,41,39,37,40,36,32,99,89,76,29.55,29.31,7,2,12,0.25
2013-3-19,58,45,37,40,23,5,99,52,18,29.50,29.28,25,5,34,0.08
2013-3-20,54,40,28,31,13,1,91,37,18,29.51,29.25,22,5,28,0.08
2013-3-21,32,27,22,26,13,5,81,57,39,29.44,29.29,15,4,19,0.00
2013-3-22,50,31,17,20,11,6,70,47,21,29.50,29.41,12,4,14,0.02
2013-3-23,59,40,27,27,20,9,75,49,20,29.51,29.38,9,2,10,0.00
2013-3-24,39,35,32,33,29,23,95,80,52,29.40,29.00,5,1,10,0.32
2013-3-25,40,34,32,32,28,23,97,79,54,29.27,28.97,15,3,19,0.34
2013-3-26,42,36,33,32,27,24,80,69,54,29.58,29.27,13,4,17,0.04
2013-3-27,46,36,31,31,25,21,85,66,46,29.67,29.58,14,5,18,0.05
2013-3-28,52,40,32,29,23,18,81,55,26,29.75,29.65,11,4,16,0.02
2013-3-29,61,41,27,32,24,17,91,58,22,29.78,29.63,13,3,14,0.00
2013-3-30,67,52,28,35,28,20,94,47,17,29.72,29.51,9,2,10,0.00
2013-3-31,58,48,41,51,43,34,99,83,64,29.51,29.27,15,2,17,0.21
2013-4-1,54,44,36,46,37,27,99,80,47,29.50,29.33,19,4,21,0.04
2013-4-2,53,40,32,29,17,7,74,43,20,29.64,29.49,14,4,21,0.00
2013-4-3,55,39,26,24,16,7,82,45,18,29.76,29.63,19,4,19,0.00
2013-4-4,47,35,29,33,22,9,99,64,23,29.77,29.47,13,2,17,0.05
2013-4-5,66,46,33,43,32,22,99,66,21,29.54,29.40,12,3,17,0.44
2013-4-6,74,52,32,38,30,18,96,54,14,29.71,29.55,10,2,14,0.00
2013-4-7,76,56,40,43,36,32,79,51,23,29.62,29.47,14,3,22,0.00
2013-4-8,82,62,44,49,44,40,92,58,23,29.59,29.44,16,3,20,0.00
2013-4-9,86,66,48,54,48,42,97,59,24,29.65,29.48,17,2,17,0.00
2013-4-10,92,69,50,56,48,40,93,55,21,29.58,29.37,14,3,17,0.00
2013-4-11,89,70,52,57,51,45,92,55,23,29.42,29.18,12,3,17,0.00
2013-4-12,75,63,52,63,51,34,99,69,34,29.38,29.10,19,5,23,1.26
2013-4-13,72,58,47,40,33,22,75,44,15,29.50,29.36,17,5,30,0.13
2013-4-14,81,60,40,48,37,29,89,50,16,29.59,29.42,18,3,18,0.00
2013-4-15,61,56,52,55,53,51,98,91,73,29.66,29.51,4,1,6,0.41
2013-4-16,88,69,56,59,56,53,94,67,33,29.72,29.57,8,2,12,0.00
2013-4-17,78,66,57,64,59,56,99,82,48,29.72,29.59,9,2,14,0.13
2013-4-18,80,67,52,61,55,52,99,71,43,29.60,29.40,13,3,18,0.00
2013-4-19,76,63,47,64,53,36,94,70,57,29.42,29.12,14,4,18,0.41
2013-4-20,62,48,38,37,27,16,77,48,20,29.78,29.43,13,5,17,0.01
2013-4-21,67,50,34,34,29,23,88,52,19,29.94,29.78,10,2,15,0.00
2013-4-22,69,52,39,36,29,18,83,48,15,29.90,29.69,10,3,17,0.00
2013-4-23,82,56,35,46,37,30,90,54,18,29.74,29.50,10,2,11,0.00
2013-4-24,91,60,45,63,49,44,98,73,24,29.66,29.36,11,3,16,0.00
2013-4-25,86,53,36,44,33,18,94,57,14,29.80,29.66,6,1,9,0.00
2013-4-26,86,55,35,41,35,24,98,57,14,29.89,29.74,4,0,5,0.00
2013-4-27,72,57,46,50,44,39,85,64,35,29.82,29.67,2,0,3,0.05
2013-4-28,64,57,52,53,51,48,99,82,66,29.67,29.48,0,0,0,0.21
2013-4-29,69,60,52,59,53,51,96,79,57,29.51,29.44,0,0,0,0.02
2013-4-30,80,64,50,61,53,50,99,73,43,29.67,29.50,1,0,1,0.00
2013-5-1,77,65,58,55,51,44,83,62,43,29.78,29.67,5,0,8,0.00
2013-5-2,80,64,51,53,49,44,84,60,37,29.79,29.68,1,0,2,0.00
2013-5-3,74,59,45,50,44,35,96,63,25,29.73,29.63,7,0,7,0.00
2013-5-4,70,58,48,46,41,32,70,54,26,29.64,29.51,3,0,10,0.00
2013-5-5,70,58,51,49,40,20,81,55,15,29.57,29.45,4,0,7,0.00
2013-5-6,60,56,53,56,53,49,99,90,79,29.46,29.36,1,0,4,0.00
2013-5-7,59,54,51,56,53,51,99,96,82,29.44,29.37,0,0,0,0.00
2013-5-8,63,54,50,55,52,50,99,92,71,29.50,29.39,0,0,1,0.00
2013-5-9,83,63,51,60,54,50,99,76,38,29.57,29.48,0,0,1,0.00
2013-5-10,86,64,53,63,57,52,99,81,36,29.57,29.40,0,0,1,0.00
2013-5-11,76,64,58,70,58,51,99,85,53,29.43,29.29,1,0,2,0.00
2013-5-12,62,53,42,51,37,27,87,58,29,29.57,29.37,2,0,2,0.00
2013-5-13,62,48,36,38,33,23,98,63,24,29.66,29.55,2,0,2,0.00
2013-5-14,74,54,36,49,38,23,97,64,17,29.69,29.43,1,0,2,0.00
2013-5-15,92,68,49,62,53,47,99,65,30,29.51,29.38,2,0,2,0.00
2013-5-16,83,66,52,61,56,52,99,75,41,29.54,29.42,2,0,2,0.00
2013-5-17,87,67,59,66,62,58,99,86,44,29.61,29.52,0,0,0,0.00
2013-5-18,78,68,61,67,63,61,99,83,60,29.63,29.53,1,0,2,0.00
2013-5-19,79,69,64,68,64,62,96,85,62,29.59,29.49,0,0,2,0.00
2013-5-20,79,69,62,68,64,61,98,84,63,29.59,29.50,0,0,0,0.00
2013-5-21,63,56,54,56,54,53,97,92,78,29.74,29.69,0,0,0,0.00
2013-5-22,86,63,53,63,56,53,98,83,45,29.72,29.65,0,0,0,0.00
2013-5-23,84,71,60,62,58,52,99,71,35,29.63,29.57,0,0,0,0.00
2013-5-24,59,58,58,59,58,57,99,99,99,29.60,29.53,0,0,0,0.00
2013-5-25,75,66,58,67,59,57,99,82,54,29.55,29.48,0,0,0,0.00
2013-5-26,73,65,59,61,57,50,90,76,61,29.56,29.46,0,0,0,0.00
2013-5-27,79,70,52,59,55,46,87,61,39,29.90,29.54,0,0,0,0.00
2013-5-28,88,71,56,66,58,53,99,70,34,29.85,29.73,2,0,2,0.00
2013-5-29,92,73,59,68,61,58,98,71,36,29.87,29.76,1,0,1,0.00
2013-5-30,100,74,60,68,60,55,98,68,27,29.91,29.78,1,0,1,0.00
2013-5-31,96,74,59,68,62,58,97,70,35,29.87,29.71,0,0,2,0.00
2013-6-1,95,75,62,69,64,60,95,72,38,29.76,29.61,2,0,2,0.00
2013-6-2,78,69,64,70,65,62,99,88,67,29.64,29.55,1,0,1,0.00
2013-6-3,78,69,60,69,63,58,99,83,57,29.69,29.55,2,0,2,0.00
2013-6-4,88,70,60,64,59,55,97,72,38,29.76,29.69,1,0,2,0.00
2013-6-5,88,70,57,66,61,56,98,74,47,29.79,29.63,2,0,2,0.00
2013-6-6,77,70,64,68,64,60,96,82,71,29.68,29.47,0,0,0,0.00
2013-6-7,78,69,63,71,64,59,98,86,74,29.54,29.37,0,0,1,0.00
2013-6-8,90,70,60,63,59,53,98,72,34,29.77,29.54,0,0,1,0.00
2013-6-9,94,74,60,68,62,58,96,73,35,29.83,29.68,1,0,2,0.00
2013-6-10,80,70,64,74,66,62,99,87,64,29.72,29.53,0,0,0,0.00
2013-6-11,80,70,63,68,65,62,99,84,57,29.66,29.56,0,0,0,0.00
2013-6-12,89,75,64,75,68,63,98,82,56,29.68,29.54,0,0,0,0.00
2013-6-13,82,70,61,72,66,58,99,88,64,29.56,29.34,0,0,1,0.00
2013-6-14,78,66,56,60,57,54,99,76,47,29.74,29.52,0,0,0,0.00
2013-6-15,87,69,58,65,58,54,97,73,35,29.83,29.71,0,0,0,0.00
2013-6-16,86,70,58,68,62,57,98,80,50,29.76,29.66,0,0,0,0.00
2013-6-17,91,75,64,73,67,64,99,81,48,29.72,29.58,0,0,0,0.00
2013-6-18,72,68,63,68,66,62,99,94,77,29.63,29.52,0,0,0,0.00
2013-6-19,90,72,62,69,62,57,98,75,40,29.80,29.63,0,0,0,0.00
2013-6-20,89,73,63,68,64,61,95,77,46,29.89,29.80,0,0,0,0.00
2013-6-21,92,74,64,70,64,61,97,75,41,29.94,29.82,0,0,0,0.00
2013-6-22,92,74,62,66,63,59,96,72,35,29.92,29.78,0,0,0,0.00
2013-6-23,93,75,63,70,64,61,96,73,39,29.88,29.76,0,0,0,0.00
2013-6-24,90,74,68,74,68,66,95,82,46,29.88,29.74,0,0,0,0.00
2013-6-25,90,75,66,73,68,65,96,82,49,29.81,29.65,0,0,0,0.00
2013-6-26,92,77,69,73,69,67,95,78,48,29.69,29.56,0,0,0,0.00
2013-6-27,79,72,68,71,68,65,95,88,72,29.57,29.43,0,0,0,0.00
2013-6-28,90,77,68,73,66,59,98,72,38,29.45,29.26,1,0,2,0.00
2013-6-29,89,73,64,69,63,59,97,75,38,29.40,29.31,0,0,2,0.00
2013-6-30,91,74,63,70,64,61,95,74,42,29.51,29.39,0,0,0,0.00
2013-7-1,89,75,68,70,67,65,98,78,50,29.63,29.50,0,0,0,0.00
2013-7-2,83,75,69,71,68,66,93,79,60,29.79,29.61,0,0,0,0.00
2013-7-3,81,71,66,72,68,65,98,90,71,29.88,29.78,0,0,0,0.00
2013-7-4,90,76,67,75,69,67,99,83,56,29.91,29.80,0,0,1,0.00
2013-7-5,90,77,68,73,69,66,98,77,51,29.90,29.79,0,0,1,0.00
2013-7-6,91,77,67,71,67,64,96,74,43,29.89,29.76,0,0,1,0.00
2013-7-7,86,73,68,71,68,66,95,85,58,29.83,29.76,0,0,0,0.00
2013-7-8,88,75,68,70,67,65,95,78,49,29.85,29.77,0,0,0,0.00
2013-7-9,93,78,68,72,68,66,94,77,44,29.84,29.72,0,0,0,0.00
2013-7-10,87,74,68,75,71,67,97,90,65,29.76,29.63,0,0,0,0.00
2013-7-11,82,72,68,73,69,67,99,90,68,29.66,29.57,0,0,0,0.00
2013-7-12,82,69,64,72,66,62,99,91,64,29.75,29.60,0,0,0,0.00
2013-7-13,79,70,62,70,66,61,98,86,67,29.85,29.73,0,0,0,0.00
2013-7-14,89,77,70,72,68,66,96,76,49,29.98,29.83,0,0,0,0.00
2013-7-15,70,68,68,67,67,66,96,95,90,30.00,29.98,0,0,0,0.00
2013-7-16,87,78,73,72,71,70,89,78,59,29.97,29.92,0,0,0,0.00
2013-7-17,96,78,71,77,72,69,94,83,46,29.98,29.84,0,0,0,0.00
2013-7-18,94,79,72,76,73,70,95,83,54,29.90,29.75,0,0,0,0.00
2013-7-19,95,80,73,77,73,71,95,81,52,29.79,29.64,0,0,0,0.00
2013-7-20,92,79,70,74,70,65,94,75,46,29.69,29.56,24,0,24,0.26
2013-7-21,88,75,69,75,70,68,96,86,60,29.69,29.59,0,0,0,0.00
2013-11-17,72,61,56,58,55,52,98,83,53,29.61,29.42,5,1,13,0.77
2013-11-18,66,53,44,58,37,24,99,60,22,29.70,29.46,21,4,21,0.02
2013-11-19,51,40,32,28,25,22,73,55,36,29.93,29.70,23,4,23,0.00
2013-11-20,55,38,28,30,24,20,83,58,27,30.05,29.92,11,2,14,0.00
2013-11-21,60,43,28,43,34,21,86,70,51,30.11,29.94,11,2,12,0.00
2013-11-22,64,52,46,56,47,42,97,83,60,29.96,29.75,17,1,17,0.06
2013-11-23,52,42,28,47,30,11,85,62,29,29.94,29.79,17,6,23,0.14
2013-11-24,33,24,18,15,2,-7,66,40,23,30.14,29.94,19,6,19,0.00
2013-11-25,47,29,17,22,9,3,63,46,22,30.32,29.92,5,2,7,0.00
2013-11-26,41,37,32,41,33,19,99,87,53,30.30,29.72,9,1,10,1.00
2013-11-27,40,30,24,37,22,9,87,71,50,30.22,29.74,14,3,20,0.08
2013-11-28,44,29,24,21,15,11,76,57,32,30.45,30.22,16,3,16,0.05
2013-11-29,54,32,21,28,21,17,85,67,28,30.59,30.44,5,1,7,0.00
2013-11-30,50,30,22,25,21,18,85,70,35,30.60,30.33,10,2,11,0.00
2013-12-1,56,35,21,35,26,17,86,73,36,30.33,30.03,4,1,7,0.00
2013-12-2,57,44,37,40,36,32,87,75,50,30.03,29.84,4,1,4,0.00
2013-12-3,59,45,38,42,38,34,90,78,50,29.96,29.87,5,1,7,0.00
2013-12-4,73,49,36,50,42,33,96,81,44,30.07,29.93,8,1,8,0.00
2013-12-5,59,48,42,50,46,41,99,91,72,30.10,29.98,4,1,4,0.12
2013-12-6,54,45,38,53,42,36,98,90,81,30.18,29.95,22,4,26,1.11
2013-12-7,38,35,33,36,28,24,94,75,69,30.49,30.17,11,4,13,0.01
2013-12-8,35,34,33,32,28,25,91,81,71,30.46,30.17,8,2,9,0.48
2013-12-9,36,34,34,34,32,32,93,92,91,30.17,30.11,3,1,4,0.09
2013-12-10,38,33,25,36,25,16,94,76,53,30.28,29.99,14,3,14,0.14
2013-12-11,54,32,21,26,19,14,81,64,22,30.39,30.23,10,2,10,0.00
2013-12-12,39,28,20,18,8,-2,66,44,22,30.45,30.30,12,5,12,0.00
2013-12-13,52,30,18,26,15,8,79,57,21,30.33,30.23,8,2,8,0.00
2013-12-14,36,34,30,32,29,22,90,84,65,30.30,29.77,8,1,8,0.30
2013-12-15,40,35,33,38,27,22,96,72,62,30.08,29.75,16,4,16,0.08
2013-12-16,48,35,28,31,25,21,87,68,50,30.17,30.06,10,3,11,0.00
2013-12-17,53,35,28,36,29,22,88,78,46,30.12,29.95,16,3,23,0.35
2013-12-18,49,34,26,25,19,12,73,56,27,30.26,30.12,10,3,14,0.00
2013-12-19,59,35,22,35,25,16,81,67,34,30.30,30.16,6,1,6,0.00
2013-12-20,63,43,30,46,34,27,87,74,35,30.19,30.05,10,2,13,0.00
2013-12-21,67,52,42,56,46,39,92,78,56,30.09,29.89,8,2,9,0.00
2013-12-22,70,58,50,57,54,49,97,87,62,30.08,29.86,14,2,17,0.48
2013-12-23,52,45,34,51,40,21,98,82,59,30.29,29.97,14,4,15,0.15
2013-12-24,37,29,19,24,15,4,74,54,32,30.45,30.24,17,5,23,0.01
2013-12-25,45,25,14,16,9,4,71,53,22,30.45,30.27,8,2,10,0.00
2013-12-26,52,32,22,26,16,9,71,55,22,30.37,30.24,10,2,12,0.00
2013-12-27,59,33,22,28,19,15,81,61,22,30.45,30.32,11,1,11,0.00
2013-12-28,58,34,21,32,23,16,84,66,30,30.40,30.12,4,1,4,0.05
2013-12-29,51,42,36,44,37,32,96,85,70,30.12,29.76,10,2,14,0.56
2013-12-30,43,37,33,38,29,23,88,72,58,30.17,29.98,11,2,14,0.00
2013-12-31,46,33,25,25,19,13,77,57,27,30.36,30.14,23,4,23,0.12
2014-1-1,62,33,23,29,22,17,82,65,26,30.38,30.11,5,1,6,0.00
2014-1-2,38,31,23,34,24,8,87,75,53,30.10,29.68,18,2,18,0.07